TimeEST,TemperatureF,Dew PointF,Humidity,Sea Level PressureIn,VisibilityMPH,Wind Direction,Wind SpeedMPH,Gust SpeedMPH,PrecipitationIn,Events,Conditions,WindDirDegrees,DateUTC
12:14 AM,27.5,24.6,89,30.00,10.0,North,3.5,-,N/A,,Overcast,350,2012-12-25 05:14:00
12:34 AM,27.5,24.3,88,30.01,10.0,NNW,4.6,-,N/A,,Overcast,340,2012-12-25 05:34:00
12:54 AM,27.5,23.7,86,30.02,10.0,NNW,5.8,-,N/A,,Overcast,340,2012-12-25 05:54:00
1:14 AM,27.3,23.4,85,30.02,10.0,North,5.8,-,N/A,,Overcast,360,2012-12-25 06:14:00
1:34 AM,27.0,23.0,85,30.03,10.0,NNW,5.8,-,N/A,,Overcast,340,2012-12-25 06:34:00
1:54 AM,25.3,21.9,87,30.03,10.0,NNW,3.5,-,N/A,,Overcast,340,2012-12-25 06:54:00
2:14 AM,24.6,21.4,87,30.04,10.0,Calm,Calm,-,N/A,,Mostly Cloudy,0,2012-12-25 07:14:00
2:34 AM,23.7,21.2,90,30.06,10.0,Calm,Calm,-,N/A,,Mostly Cloudy,0,2012-12-25 07:34:00
2:54 AM,23.7,21.7,92,30.07,10.0,Calm,Calm,-,N/A,,Overcast,0,2012-12-25 07:54:00
3:14 AM,23.9,21.9,92,30.07,10.0,Calm,Calm,-,N/A,,Overcast,0,2012-12-25 08:14:00
3:34 AM,24.6,21.7,89,30.08,10.0,NNW,3.5,-,N/A,,Overcast,330,2012-12-25 08:34:00
3:54 AM,24.8,21.6,87,30.09,10.0,Calm,Calm,-,N/A,,Overcast,0,2012-12-25 08:54:00
4:14 AM,25.3,21.6,86,30.10,10.0,NW,3.5,-,N/A,,Overcast,310,2012-12-25 09:14:00
4:34 AM,25.3,21.0,84,30.11,10.0,NW,4.6,-,N/A,,Overcast,310,2012-12-25 09:34:00
4:54 AM,23.9,19.9,85,30.11,10.0,NW,4.6,-,N/A,,Overcast,320,2012-12-25 09:54:00
5:14 AM,22.5,18.7,85,30.13,10.0,NNW,3.5,-,N/A,,Overcast,340,2012-12-25 10:14:00
5:34 AM,22.1,18.9,87,30.14,10.0,NNW,3.5,-,N/A,,Overcast,330,2012-12-25 10:34:00
5:54 AM,22.1,19.2,89,30.15,10.0,NNW,4.6,-,N/A,,Overcast,330,2012-12-25 10:54:00
6:14 AM,22.1,19.2,89,30.16,10.0,NW,3.5,-,N/A,,Overcast,320,2012-12-25 11:14:00
6:34 AM,22.1,19.4,89,30.18,10.0,NNW,3.5,-,N/A,,Overcast,330,2012-12-25 11:34:00
6:54 AM,22.5,19.8,89,30.18,10.0,NNW,4.6,-,N/A,,Overcast,340,2012-12-25 11:54:00
7:14 AM,22.1,19.4,89,30.18,10.0,North,3.5,-,N/A,,Overcast,350,2012-12-25 12:14:00
7:34 AM,21.9,19.4,90,30.19,10.0,North,3.5,-,N/A,,Overcast,350,2012-12-25 12:34:00
7:54 AM,21.9,19.4,90,30.20,10.0,NNW,3.5,-,N/A,,Overcast,340,2012-12-25 12:54:00
8:14 AM,21.9,19.4,90,30.20,10.0,NNW,5.8,-,N/A,,Overcast,340,2012-12-25 13:14:00
8:34 AM,22.1,19.4,89,30.21,10.0,NNW,4.6,-,N/A,,Overcast,340,2012-12-25 13:34:00
8:54 AM,22.1,19.8,91,30.22,10.0,North,4.6,-,N/A,,Overcast,350,2012-12-25 13:54:00
9:14 AM,22.8,20.3,90,30.22,10.0,North,3.5,-,N/A,,Overcast,360,2012-12-25 14:14:00
9:34 AM,23.5,20.7,89,30.23,10.0,North,4.6,-,N/A,,Overcast,10,2012-12-25 14:34:00
9:54 AM,24.4,21.2,87,30.23,10.0,NNE,4.6,-,N/A,,Overcast,20,2012-12-25 14:54:00
10:14 AM,25.7,21.7,85,30.24,10.0,NNE,5.8,-,N/A,,Overcast,20,2012-12-25 15:14:00
10:35 AM,27.5,21.7,79,30.24,10.0,NNE,8.1,-,N/A,,Mostly Cloudy,20,2012-12-25 15:35:00
10:54 AM,27.9,21.0,75,30.25,10.0,NNE,8.1,-,N/A,,Scattered Clouds,20,2012-12-25 15:54:00
11:14 AM,28.4,19.9,71,30.24,10.0,North,6.9,-,N/A,,Scattered Clouds,10,2012-12-25 16:14:00
11:35 AM,28.4,19.4,69,30.24,10.0,NNE,8.1,-,N/A,,Overcast,30,2012-12-25 16:35:00
11:54 AM,28.9,19.8,69,30.25,10.0,NNE,6.9,-,N/A,,Scattered Clouds,20,2012-12-25 16:54:00
12:14 PM,29.1,19.6,68,30.25,10.0,NNE,6.9,-,N/A,,Clear,20,2012-12-25 17:14:00
12:35 PM,29.3,19.6,67,30.26,10.0,NE,5.8,-,N/A,,Clear,50,2012-12-25 17:35:00
12:54 PM,29.8,19.4,65,30.24,10.0,NE,8.1,-,N/A,,Clear,40,2012-12-25 17:54:00
1:14 PM,30.2,19.6,65,30.25,10.0,NE,6.9,-,N/A,,Clear,50,2012-12-25 18:14:00
1:35 PM,30.4,19.6,64,30.23,10.0,NNE,9.2,-,N/A,,Clear,30,2012-12-25 18:35:00
1:54 PM,30.9,19.2,62,30.26,10.0,NNE,5.8,-,N/A,,Clear,30,2012-12-25 18:54:00
2:14 PM,31.1,19.2,61,30.26,10.0,NNE,6.9,-,N/A,,Clear,30,2012-12-25 19:14:00
2:35 PM,31.3,19.4,61,30.25,10.0,North,6.9,-,N/A,,Clear,10,2012-12-25 19:35:00
2:54 PM,31.1,19.6,62,30.25,10.0,NE,8.1,-,N/A,,Clear,40,2012-12-25 19:54:00
3:14 PM,31.1,19.2,61,30.25,10.0,NNE,5.8,-,N/A,,Clear,20,2012-12-25 20:14:00
3:35 PM,30.2,19.4,64,30.25,10.0,NE,6.9,-,N/A,,Clear,40,2012-12-25 20:35:00
3:54 PM,29.7,19.0,65,30.26,10.0,NE,6.9,-,N/A,,Clear,40,2012-12-25 20:54:00
4:15 PM,29.3,18.9,65,30.26,10.0,NE,5.8,-,N/A,,Clear,40,2012-12-25 21:15:00
4:34 PM,28.6,18.5,66,30.26,10.0,NNE,5.8,-,N/A,,Clear,30,2012-12-25 21:34:00
4:54 PM,27.7,18.3,68,30.26,10.0,NE,4.6,-,N/A,,Clear,40,2012-12-25 21:54:00
5:15 PM,27.0,17.8,68,30.27,10.0,NE,4.6,-,N/A,,Clear,40,2012-12-25 22:15:00
5:34 PM,26.6,17.6,69,30.27,10.0,NE,3.5,-,N/A,,Mostly Cloudy,40,2012-12-25 22:34:00
5:54 PM,26.8,17.6,68,30.28,10.0,Calm,Calm,-,N/A,,Overcast,0,2012-12-25 22:54:00
6:15 PM,26.4,18.1,71,30.28,10.0,Calm,Calm,-,N/A,,Overcast,0,2012-12-25 23:15:00
6:34 PM,26.8,18.3,70,30.28,10.0,Calm,Calm,-,N/A,,Overcast,0,2012-12-25 23:34:00
6:54 PM,27.1,18.5,70,30.29,10.0,NNE,3.5,-,N/A,,Overcast,20,2012-12-25 23:54:00
7:34 PM,27.3,18.9,70,30.29,10.0,NE,3.5,-,N/A,,Overcast,40,2012-12-26 00:34:00
7:54 PM,27.5,19.4,72,30.30,10.0,NE,5.8,-,N/A,,Overcast,40,2012-12-26 00:54:00
8:15 PM,27.7,19.4,71,30.30,10.0,NE,5.8,-,N/A,,Overcast,40,2012-12-26 01:15:00
8:34 PM,27.9,19.2,70,30.30,10.0,NE,5.8,-,N/A,,Overcast,40,2012-12-26 01:34:00
8:54 PM,27.9,19.4,71,30.30,10.0,NE,6.9,-,N/A,,Overcast,40,2012-12-26 01:54:00
9:15 PM,27.7,19.2,71,30.29,10.0,NNE,6.9,-,N/A,,Overcast,30,2012-12-26 02:15:00
9:34 PM,27.9,18.5,68,30.28,10.0,NNE,9.2,-,N/A,,Overcast,30,2012-12-26 02:34:00
9:55 PM,27.7,18.5,68,30.28,10.0,NNE,9.2,-,N/A,,Overcast,30,2012-12-26 02:55:00
10:15 PM,27.5,18.9,70,30.27,10.0,NNE,9.2,-,N/A,,Overcast,30,2012-12-26 03:15:00
10:34 PM,27.5,19.4,72,30.26,10.0,NNE,9.2,-,N/A,,Overcast,30,2012-12-26 03:34:00
10:55 PM,27.7,19.8,72,30.26,10.0,NE,6.9,-,N/A,,Overcast,40,2012-12-26 03:55:00
11:15 PM,27.5,19.6,72,30.26,10.0,NE,6.9,-,N/A,,Overcast,40,2012-12-26 04:15:00
11:34 PM,27.5,19.4,72,30.26,10.0,NNE,9.2,-,N/A,,Overcast,30,2012-12-26 04:34:00
11:54 PM,27.5,19.4,72,30.25,10.0,NE,8.1,-,N/A,,Overcast,40,2012-12-26 04:54:00